[[{"header":{"parameterUnit":"m.s-1","parameterCategory":1,"la1":30.2991,"la2":30.254,"lo1":-89.0895,"lo2":-89.0444,"dy":0.0017,"dx":0.0017,"nx":28,"ny":28,"refTime":"2024-07-01T21:00:00:Z","depth":0,"parameterNumber":2,"parameterNumberName":"U-component_of_WINDS"},"data":[0,0,0,0,0,0,0,0,0,0,0,0,0,0,0,0,0,0,0,0,0,0,0,0,0,0,0,0,0,0,0,0,0,0,0,0,0,0,0,0,0,0,0,0,0,0,0,0,0,0,0,0,0,0,0,0,0,0,0.0983,0.0983,0,0.0969,0.0968,0.0968,0.093,0.0929,0.0928,0.0927,0.0914,0.0914,0.0915,0,0,0,0,0,0,0,0,0,0,0,0,0,0.098,0.0981,0.0983,0.0983,0.0983,0.0969,0.0968,0.0968,0.093,0.0929,0.0928,0.0927,0.0914,0.0914,0.0915,0,0,0,0,0,0,0,0,0,0,0,0,0,0.0975,0.0981,0.0983,0.0962,0.096,0.0969,0.0968,0.0968,0.093,0.0929,0.0928,0.0927,0.0914,0.0914,0.0915,0.0943,0,0,0.0917,0.0917,0,0,0,0,0,0,0,0,0.0976,0.0976,0.0965,0.0963,0.0961,0.095,0.0962,0.096,0.0931,0.0942,0.0927,0.0926,0.0927,0.0926,0.0926,0.0943,0.0942,0.0917,0.0917,0.0917,0.0918,0,0,0,0,0,0,0,0.0976,0.0976,0.0977,0.0965,0.0963,0.0954,0.0952,0.0962,0.0941,0.0941,0.0938,0.0936,0.0926,0.0926,0.0926,0.0942,0.0917,0.0917,0.0918,0.0918,0.0983,0.0984,0,0,0,0,0,0,0.0979,0.0977,0.0978,0.0977,0.0966,0.0955,0.0953,0.0955,0.0941,0.0938,0.0938,0.0935,0.0925,0.0925,0.0925,0.0959,0.0917,0.0918,0.0918,0.0982,0.0983,0.0985,0,0,0,0,0,0,0.0979,0.098,0.0978,0.0976,0.0975,0.0956,0.0959,0.0955,0.0955,0.0939,0.0935,0.0941,0.0924,0.0924,0.0939,0.0958,0.0918,0.0919,0.098,0.0982,0.0984,0.1026,0,0,0,0,0,0,0.0979,0.098,0.099,0.0976,0.0975,0.0992,0.096,0.0956,0.0956,0.0953,0.0942,0.0939,0.0924,0.0939,0.094,0.0958,0.0919,0.0978,0.0981,0.0983,0.1023,0.1029,0.1035,0,0,0,0,0,0.0979,0.1002,0.0991,0.0991,0.0987,0.0993,0.0993,0.0975,0.0958,0.0968,0.0958,0.0939,0.0956,0.0941,0.0942,0.096,0.0977,0.098,0.0983,0.102,0.1028,0.1034,0,0,0,0,0,0,0.1018,0.1,0.0987,0.1006,0.1001,0.0987,0.0999,0.0983,0.0984,0.098,0.0958,0.0956,0.0975,0.0969,0.0952,0.0988,0.0963,0.0967,0.0991,0.0998,0.1004,0.1005,0.092,0,0,0,0,0,0.1029,0.1035,0.1019,0.1037,0.1035,0.1018,0.102,0.1006,0.1001,0.0999,0.099,0.0986,0.0991,0.0994,0.0997,0.1022,0.102,0.1035,0.1041,0.1046,0.1049,0.1064,0.1071,0.0995,0.0995,0.0995,0,0,0.1051,0.1042,0.1047,0.1044,0.1039,0.1047,0.1017,0.1025,0.1031,0.1001,0.1014,0.1008,0.1002,0.1023,0.1031,0.1019,0.107,0.105,0.1054,0.1055,0.1068,0.1075,0.1081,0.0997,0.0997,0.0996,0,0,0.1095,0.1088,0.1103,0.1099,0.1093,0.1081,0.1085,0.1073,0.1068,0.1081,0.1059,0.1066,0.1074,0.1071,0.1071,0.1117,0.11,0.1119,0.1149,0.1164,0.117,0.1175,0.1192,0.1199,0.1122,0.1122,0.1122,0,0.1124,0.1133,0.1113,0.1124,0.1124,0.1098,0.1114,0.1111,0.1106,0.1107,0.1093,0.1103,0.1097,0.1118,0.1129,0.1129,0.1134,0.112,0.117,0.1175,0.118,0.1196,0.1203,0.1124,0.1124,0.1124,0.1124,0,0.1169,0.1177,0.119,0.1186,0.1188,0.1201,0.1184,0.1189,0.1176,0.1166,0.1181,0.1174,0.1176,0.118,0.1167,0.1199,0.1191,0.1174,0.1149,0.119,0.1205,0.1211,0.1128,0.1127,0.1126,0.1126,0,0,0.1237,0.1222,0.1228,0.1226,0.1217,0.1223,0.1236,0.1238,0.1243,0.1241,0.1252,0.126,0.1245,0.1244,0.1231,0.1244,0.1282,0.1225,0.1225,0.1237,0.1319,0.1333,0.134,0.1271,0.1272,0.1273,0.132,0,0.1279,0.13,0.1283,0.1307,0.1315,0.129,0.1302,0.1298,0.129,0.1296,0.1288,0.1294,0.1272,0.1273,0.1284,0.1275,0.1299,0.1271,0.1282,0.1283,0.1285,0.1348,0.1362,0.1407,0.1326,0.1327,0.1327,0,0.1331,0.1332,0.1357,0.1348,0.1351,0.1361,0.1363,0.1368,0.1365,0.1358,0.1359,0.1343,0.1356,0.1332,0.1351,0.1333,0.1336,0.1333,0.1335,0.1335,0.1308,0.1351,0.142,0.1428,0.1336,0.1336,0.1335,0,0.1379,0.1386,0.1402,0.1402,0.1392,0.14,0.1397,0.1392,0.1394,0.1396,0.1398,0.1401,0.1403,0.1406,0.1392,0.1375,0.1414,0.1388,0.141,0.1411,0.1419,0.1419,0.1491,0.1421,0.142,0.142,0.142,0,0.1429,0.1445,0.1424,0.1434,0.1453,0.1434,0.1453,0.1447,0.1443,0.1453,0.1432,0.1441,0.1422,0.143,0.1419,0.1437,0.1438,0.1434,0.1431,0.1436,0.1437,0.1439,0.1436,0.1422,0.1422,0.1421,0.1421,0,0.1486,0.1472,0.1488,0.1478,0.1476,0.149,0.1481,0.1491,0.1482,0.1495,0.1496,0.1483,0.1491,0.1477,0.1484,0.1477,0.1503,0.1495,0.1504,0.1502,0.1526,0.1524,0.1602,0.1612,0.1534,0.1535,0.1535,0,0.1518,0.1531,0.1522,0.1527,0.1524,0.1532,0.1535,0.1518,0.1522,0.152,0.1531,0.1537,0.1542,0.1556,0.1548,0.1553,0.1546,0.1572,0.1546,0.1552,0.1548,0.1548,0.1549,0.1578,0.1579,0.158,0.158,0,0.1579,0.1572,0.1577,0.158,0.1584,0.1586,0.1586,0.1592,0.1573,0.158,0.1588,0.1592,0.1599,0.1606,0.161,0.1607,0.1592,0.1589,0.1594,0.16,0.1606,0.1605,0.152,0.1587,0.1586,0.1586,0.1585,0.1585,0.1625,0.1636,0.1632,0.1639,0.1637,0.1638,0.1648,0.164,0.1647,0.1651,0.1641,0.1652,0.165,0.1653,0.1653,0.1662,0.165,0.1658,0.1661,0.1663,0.1668,0.1604,0.1663,0.1662,0.1662,0.1662,0.1662,0,0.1686,0.1682,0.1689,0.169,0.1696,0.168,0.168,0.1687,0.1697,0.1696,0.1701,0.1712,0.172,0.1712,0.1718,0.1728,0.1721,0.173,0.173,0.173,0.1677,0.1672,0.1736,0.1736,0.1736,0.1736,0.1736,0.1736,0.1718,0.1736,0.1729,0.1746,0.1742,0.1753,0.1755,0.1757,0.1756,0.1769,0.1775,0.177,0.1767,0.1773,0.178,0.1778,0.1782,0.1794,0.179,0.174,0.1733,0.1726,0.1721,0.1795,0.1795,0.1842,0.1842,0.1843]},{"header":{"parameterUnit":"m.s-1","parameterCategory":1,"la1":30.2991,"la2":30.254,"lo1":-89.0895,"lo2":-89.0444,"dy":0.0017,"dx":0.0017,"nx":28,"ny":28,"refTime":"2024-07-01T21:00:00:Z","depth":0,"parameterNumber":3,"parameterNumberName":"V-component_of_WINDS"},"data":[0,0,0,0,0,0,0,0,0,0,0,0,0,0,0,0,0,0,0,0,0,0,0,0,0,0,0,0,0,0,0,0,0,0,0,0,0,0,0,0,0,0,0,0,0,0,0,0,0,0,0,0,0,0,0,0,0,0,-1.7458,-1.7458,0,-1.7466,-1.7466,-1.7466,-1.7468,-1.7468,-1.7468,-1.7468,-1.7474,-1.7475,-1.7475,0,0,0,0,0,0,0,0,0,0,0,0,0,-1.7445,-1.7445,-1.7458,-1.7458,-1.7458,-1.7466,-1.7466,-1.7466,-1.7468,-1.7468,-1.7468,-1.7468,-1.7474,-1.7475,-1.7475,0,0,0,0,0,0,0,0,0,0,0,0,0,-1.7451,-1.7445,-1.7458,-1.746,-1.7461,-1.7466,-1.7466,-1.7466,-1.7468,-1.7468,-1.7468,-1.7468,-1.7474,-1.7474,-1.7475,-1.7478,0,0,-1.7476,-1.7476,0,0,0,0,0,0,0,0,-1.7451,-1.7452,-1.746,-1.746,-1.746,-1.7466,-1.7464,-1.747,-1.7468,-1.7465,-1.7468,-1.7468,-1.7471,-1.7472,-1.7474,-1.7479,-1.7479,-1.7476,-1.7476,-1.7476,-1.7476,0,0,0,0,0,0,0,-1.745,-1.7451,-1.7461,-1.746,-1.746,-1.7461,-1.7461,-1.7465,-1.7468,-1.7465,-1.7465,-1.7466,-1.7472,-1.7473,-1.7474,-1.7479,-1.7476,-1.7476,-1.7476,-1.7476,-1.7487,-1.7487,0,0,0,0,0,0,-1.745,-1.7451,-1.7461,-1.7461,-1.7455,-1.7461,-1.7462,-1.7464,-1.7468,-1.7469,-1.7466,-1.7466,-1.7473,-1.7473,-1.7474,-1.7478,-1.7476,-1.7477,-1.7477,-1.7487,-1.7487,-1.7487,0,0,0,0,0,0,-1.7449,-1.7451,-1.7461,-1.7456,-1.7458,-1.7461,-1.7464,-1.7464,-1.7466,-1.7469,-1.747,-1.7467,-1.7473,-1.7473,-1.7477,-1.7479,-1.7477,-1.7477,-1.7487,-1.7487,-1.7487,-1.7487,0,0,0,0,0,0,-1.7449,-1.7451,-1.7452,-1.7456,-1.7458,-1.7464,-1.7464,-1.7464,-1.7467,-1.7467,-1.747,-1.7471,-1.7473,-1.7477,-1.7478,-1.7479,-1.7477,-1.7487,-1.7487,-1.7487,-1.7487,-1.7487,-1.7487,0,0,0,0,0,-1.7449,-1.7451,-1.7452,-1.7453,-1.746,-1.7464,-1.7465,-1.7467,-1.7467,-1.7468,-1.747,-1.7471,-1.7478,-1.7477,-1.7478,-1.748,-1.7487,-1.7487,-1.7487,-1.7487,-1.7487,-1.7487,0,0,0,0,0,0,-1.7447,-1.7452,-1.7453,-1.7457,-1.746,-1.7464,-1.7466,-1.7467,-1.747,-1.747,-1.7472,-1.7473,-1.7477,-1.7479,-1.7477,-1.7483,-1.7482,-1.7483,-1.7482,-1.7482,-1.7482,-1.7482,-1.7478,0,0,0,0,0,-1.7447,-1.745,-1.7455,-1.7458,-1.746,-1.7463,-1.7465,-1.7466,-1.7469,-1.747,-1.7473,-1.7476,-1.7479,-1.748,-1.7483,-1.7487,-1.7488,-1.7489,-1.7489,-1.7489,-1.7489,-1.7491,-1.7492,-1.7488,-1.7488,-1.7488,0,0,-1.7447,-1.7451,-1.7453,-1.7458,-1.746,-1.7464,-1.7464,-1.7467,-1.7469,-1.7471,-1.7475,-1.7476,-1.748,-1.7483,-1.7485,-1.7485,-1.749,-1.7489,-1.7489,-1.7489,-1.7491,-1.7492,-1.7492,-1.7488,-1.7488,-1.7488,0,0,-1.745,-1.7452,-1.7456,-1.7458,-1.7462,-1.7464,-1.7465,-1.7469,-1.7471,-1.7474,-1.7476,-1.7478,-1.7483,-1.7486,-1.7487,-1.7491,-1.7491,-1.7491,-1.7492,-1.7494,-1.7494,-1.7495,-1.7496,-1.7496,-1.7492,-1.7492,-1.7492,0,-1.7449,-1.7455,-1.7457,-1.7461,-1.7463,-1.7465,-1.7468,-1.747,-1.7474,-1.7476,-1.7476,-1.7482,-1.7484,-1.7489,-1.7489,-1.7491,-1.7492,-1.7491,-1.7494,-1.7495,-1.7495,-1.7496,-1.7496,-1.7492,-1.7492,-1.7492,-1.7492,0,-1.7454,-1.7458,-1.746,-1.7464,-1.7467,-1.747,-1.7473,-1.7475,-1.7476,-1.7478,-1.7482,-1.7485,-1.7488,-1.749,-1.7491,-1.7494,-1.7494,-1.7494,-1.7493,-1.7495,-1.7496,-1.7497,-1.7492,-1.7492,-1.7492,-1.7492,0,0,-1.7455,-1.7462,-1.7462,-1.7464,-1.7469,-1.7472,-1.7475,-1.7479,-1.748,-1.7483,-1.7486,-1.749,-1.749,-1.7492,-1.7494,-1.7496,-1.7498,-1.7495,-1.7496,-1.7496,-1.7502,-1.7501,-1.7502,-1.7498,-1.7498,-1.7498,-1.7501,0,-1.7458,-1.7464,-1.7467,-1.7472,-1.7475,-1.7476,-1.7479,-1.7482,-1.7484,-1.7487,-1.7489,-1.7492,-1.7492,-1.7493,-1.7495,-1.7497,-1.7499,-1.7497,-1.75,-1.7501,-1.75,-1.7502,-1.7502,-1.7505,-1.7502,-1.7502,-1.7502,0,-1.7462,-1.7465,-1.7471,-1.7475,-1.7476,-1.7479,-1.7482,-1.7485,-1.7488,-1.749,-1.7492,-1.7493,-1.7497,-1.7496,-1.75,-1.7499,-1.75,-1.7502,-1.7502,-1.7502,-1.7501,-1.7503,-1.7506,-1.7506,-1.7502,-1.7502,-1.7502,0,-1.7462,-1.7468,-1.7472,-1.7474,-1.7479,-1.7481,-1.7483,-1.7486,-1.7488,-1.7491,-1.7493,-1.7496,-1.7498,-1.75,-1.7502,-1.7501,-1.7506,-1.7506,-1.7507,-1.7507,-1.7508,-1.7508,-1.7511,-1.7509,-1.7509,-1.7509,-1.7509,0,-1.7465,-1.7468,-1.7472,-1.7475,-1.7478,-1.7481,-1.7484,-1.7486,-1.7489,-1.7492,-1.7494,-1.7496,-1.7499,-1.7501,-1.7503,-1.7506,-1.7507,-1.7508,-1.7508,-1.7508,-1.7508,-1.7509,-1.7508,-1.7509,-1.7509,-1.7509,-1.7509,0,-1.7466,-1.7469,-1.7473,-1.7478,-1.7479,-1.7481,-1.7485,-1.7487,-1.7489,-1.7493,-1.7494,-1.7497,-1.75,-1.7502,-1.7506,-1.7508,-1.7511,-1.7511,-1.751,-1.751,-1.7511,-1.7511,-1.7515,-1.7516,-1.7514,-1.7514,-1.7514,0,-1.7467,-1.747,-1.7475,-1.7477,-1.7479,-1.7482,-1.7484,-1.7487,-1.7489,-1.7493,-1.7495,-1.7499,-1.7501,-1.7506,-1.7509,-1.7512,-1.7512,-1.7514,-1.7513,-1.7512,-1.7512,-1.7512,-1.7512,-1.7514,-1.7514,-1.7514,-1.7514,0,-1.747,-1.7471,-1.7474,-1.7478,-1.7481,-1.7484,-1.7487,-1.7489,-1.7492,-1.7494,-1.7498,-1.75,-1.7504,-1.7508,-1.7511,-1.7513,-1.7514,-1.7514,-1.7514,-1.7514,-1.7513,-1.7513,-1.751,-1.7514,-1.7514,-1.7514,-1.7514,-1.7514,-1.7471,-1.7473,-1.7477,-1.7481,-1.7483,-1.7486,-1.7489,-1.7491,-1.7494,-1.7498,-1.7499,-1.7503,-1.7506,-1.7511,-1.7513,-1.7515,-1.7515,-1.7516,-1.7516,-1.7516,-1.7516,-1.7513,-1.7516,-1.7516,-1.7516,-1.7516,-1.7516,0,-1.7473,-1.7476,-1.7479,-1.7484,-1.7486,-1.7487,-1.7491,-1.7493,-1.7496,-1.7499,-1.7502,-1.7506,-1.7509,-1.7512,-1.7515,-1.7517,-1.7518,-1.7518,-1.7518,-1.7518,-1.7516,-1.7515,-1.7517,-1.7517,-1.7517,-1.7517,-1.7517,-1.7517,-1.7475,-1.7479,-1.748,-1.7486,-1.7488,-1.7492,-1.7494,-1.7496,-1.7499,-1.7503,-1.7506,-1.7508,-1.7511,-1.7515,-1.7517,-1.7518,-1.7519,-1.7519,-1.752,-1.7518,-1.7518,-1.7518,-1.7517,-1.752,-1.752,-1.7522,-1.7522,-1.7522]}]]